sat.trackr.live / text

‹ back to catalog

STARLINK-34985

NORAD 65379 · 2025-191A

PAYLOAD ACTIVE UNKNOWN

§ Identity

Operator
Country
US
Launch date
2025-08-30
Launch site
AFWTR
Launch vehicle
Mass (kg)
RCS (m²)

Purposes: comms

External: N2YO · Heavens-Above · Gunter

§ Orbital elements

Epoch: 2026-05-25T02:24:12.355200Z

Period
95.64 min
Inclination
97.4501°
Eccentricity
0.0002432
Mean motion
15.05661116 rev/d
Perigee alt
547.8 km
Apogee alt
551.2 km
Semi-major
6,927.6 km
B*
3.0794e-4
RAAN
16.4125°
Arg perigee
76.9333°
Mean anomaly
283.2166°
Rev number
4,176

§ Raw data

STARLINK-349851 65379U 25191A   26145.10014300  .00004389  00000+0  30794-3 0  99942 65379  97.4501  16.4125 0002432  76.9333 283.2166 15.05661116 41767

JSON: /api/v1/satellites/65379 · /tle

For live sub-satellite position, see the globe view (requires WebGL).

§ Visibility from observer

Set your observer location to see the next 7 days of passes ≥ 10°. The values pass through the URL so the page stays shareable.

No JS? Fill the form by hand. The geolocation button needs JavaScript.